Regional Weather Roundup
Issued by NWS Charleston, SC

Current Version | Previous Version | Graphics & Text | Print | Product List | Glossary On
Versions: 1 2 3 4 5 6 7 8 9 10 11 12 13 14 15 16 17 18 19 20 21 22 23 24 25 26 27 28 29 30 31 32 33 34 35 36 37 38 39 40 41 42 43 44 45 46 47 48 49 50
000
ASUS42 KCHS 201210
RWRCHS
REGIONAL WEATHER ROUNDUP
NATIONAL WEATHER SERVICE CHARLESTON SC
800 AM EDT MON OCT 20 2014

NOTE: "FAIR" INDICATES FEW OR NO CLOUDS BELOW 12,000 FEET WITH NO
SIGNIFICANT WEATHER AND/OR OBSTRUCTIONS TO VISIBILITY.

NOT ALL STATIONS ARE QUALITY CONTROLLED BY THE NATIONAL
WEATHER SERVICE. USE DATA WITH CAUTION...ESPECIALLY
DEWPOINT OBSERVATIONS.

SCZ027-030-031-034>040-042>050-201300-
...SOUTH CAROLINA...

CITY           SKY/WX    TMP DP  RH WIND       PRES   REMARKS
N CHARLESTON   PTCLDY    55  48  77 CALM      30.13S
6HR MIN TEMP:  51; 6HR MAX TEMP:  55;

WATERFRONT PRK   N/A     61 N/A N/A N7          N/A
FORT JOHNSON   NOT AVBL
JOHNS ISLAND   SUNNY     57  54  88 N5        30.13R
PINOPOLIS        N/A     59  52  77 E5        30.05F
MONCKS CORNER  FAIR      50  50 100 CALM      30.14R
SUMMERVILLE    FAIR      46  46 100 CALM      30.14S
BEAUFORT MCAS  PTCLDY    56  52  86 N3        30.12S
6HR MIN TEMP:  51; 6HR MAX TEMP:  56;

BEAUFORT ARPT  FAIR      57  55  94 N6        30.12R
HILTON HEAD IS CLEAR     57  55  94 N5        30.12R
GEORGETOWN     NOT AVBL
WALTERBORO     SUNNY     45 N/A N/A CALM      30.14S
ORANGEBURG     CLEAR     46  43  89 NE3       30.15R
6HR MIN TEMP:  45; 6HR MAX TEMP:  49;

BARNWELL       FAIR      43  43 100 CALM      30.15R
AIKEN          FAIR      43  43 100 CALM      30.17S
MANNING        FAIR      43 N/A N/A CALM      30.14F
KINGSTREE      NOT AVBL
COLUMBIA       CLEAR     44  41  89 CALM      30.15S
6HR MIN TEMP:  43; 6HR MAX TEMP:  50;

SUMTER         CLEAR     44  43  95 NE2       30.14S
6HR MIN TEMP:  44; 6HR MAX TEMP:  48;

FLORENCE       CLEAR     44  42  93 CALM      30.16R
6HR MIN TEMP:  43; 6HR MAX TEMP:  49;

MYRTLE BEACH   CLEAR     52  45  76 N7        30.16R
N MYRTLE BEACH CLEAR     48  44  86 NE5       30.15R
6HR MIN TEMP:  45; 6HR MAX TEMP:  49;


$$

GAZ063-065-086>088-099>101-113>116-118-119-134-136>141-150-201300-
...GEORGIA...

CITY           SKY/WX    TMP DP  RH WIND       PRES   REMARKS
SAVANNAH ARPT  PTCLDY    54  50  86 N3        30.12R
6HR MIN TEMP:  52; 6HR MAX TEMP:  55;

HUNTER AAF     CLEAR     56  52  88 NE2       30.09R
6HR MIN TEMP:  52; 6HR MAX TEMP:  57;

FORT STEWART   CLEAR     52  48  87 CALM      30.10R
6HR MIN TEMP:  48; 6HR MAX TEMP:  52;

STATESBORO     NOT AVBL
SYLVANIA       SUNNY     48  48  98 CALM      30.13S
CLAXTON        FAIR      45  45 100 CALM      30.12S
THOMSON        CLEAR     45  45 100 CALM      30.17S
AUGUSTA-BUSH   CLEAR     39  38  96 CALM      30.14S FOG
6HR MIN TEMP:  39; 6HR MAX TEMP:  45;

AUGUSTA-DANIEL CLEAR     51  48  89 CALM      30.14S
SWAINSBORO     FAIR      46  46 100 MISG      30.13R
VIDALIA        CLEAR     50  50 100 CALM      30.12R
ALMA           CLEAR     49  47  93 CALM      30.10S FOG
6HR MIN TEMP:  46; 6HR MAX TEMP:  49;

WAYCROSS       PTCLDY    55  54  96 CALM      30.10R
JESUP          FAIR      54  52  94 CALM      30.11R
BRUNSWICK      PTCLDY    54  52  94 CALM      30.10R
SAINT SIMONS   PTCLDY    55  55 100 CALM      30.09R
6HR MIN TEMP:  54; 6HR MAX TEMP:  56;


$$

SCZ027-028-034-036>038-045-046-048>050-GAZ119-141-201300-
...LAKE AND SUPPLEMENTAL COASTAL OBSERVATIONS...

STATION/POSITION TIME  TEMP    WIND        PRES    WAVE   SWELL
                       AIR SEA DIR/SP/G            HT/PER HT/PER/DIR
                 (UTC) (F)     (DEG/KT/KT) (MB)    (FT/S) (FT/S/D)
UPR LAKE MARION  NOT AVBL
WINYAH BAY       1100   53     320/  3     1020.0S
LAKE MURRAY      1100   55     130/  4/  6 1020.0S
ACE BASIN NERRS  1100   52        CALM     1019.0S
FORT PULASKI     1200   65     360/  7/  8 1019.6S
SAPELO ISLAND    NOT AVBL

$$

ANZ835-935-AMZ111-154-330-350-352-354-374-450-454-472-201300-
...C-MAN AND BUOY OBSERVATIONS...

STATION/POSITION TIME  TEMP    WIND        PRES    WAVE   SWELL
                       AIR SEA DIR/SP/G            HT/PER HT/PER/DIR
                 (UTC) (F)     (DEG/KT/KT) (MB)    (FT/S) (FT/S/D)
FOLLY BEACH CMAN 1100   64      10/ 10/ 11 1020.2S
BUOY 41004       1200   71 79   70/  4/  6 1019.4R   2/ 9   2/ 9
BUOY 41008       1200   72 76   80/ 12/ 14 1018.6R   2/ 9   2/ 90/ 9
5E ST. MARYS GA  1200      77                N/A     3/12   2/ 90/12
FRYING PAN BUOY  1200   67 75   60/  4/  8 1021.2R   2/11   2/ 80/11
BUOY 41025       1200   65      CALM  /  4 1021.5R   4/12   3/ 80/12
CAPE LOOKOUT NC  1100   60     360/  7/  9 1021.1R
BUOY 41002       1057   70 80   20/  8/ 12 1020.3R   4/ 9   3/ 50/ 9
BUOY 41010       1200   78 80   80/ 14/ 16 1017.2R   4/ 8   3/ 20/ 8
BUOY 41012       NOT AVBL
ST AUGUSTINE FL  1200   75     100/  7/  8 1018.7R
CAPERS NEARSHORE 1100   65      30/ 10/ 12   N/A
FRIPP NEARSHORE  NOT AVBL


$$


USA.gov is the U.S. government's official web portal to all federal, state and local government web resources and services.